Home   Weather   New York   Past weeks

Flag for USA Past Weather in New York, New York, USA — Yesterday and Last 2 Weeks

Now
45 °F

Clear.


Feels Like: N/A
Forecast: 40 / 60 °F
Wind: N/A

Location: New York City - Central Park

Current Time: Oct 18, 2018 at 10:50:53 pm

Latest Report: Oct 18, 2018 at 9:51 pm


Visibility: 10 mi

Pressure: 30.35 "Hg

Humidity: 51%

Dew Point: 28 °F

Location of New YorkLocation

Past Weather in New York — Graph

°F

New York Temperature Yesterday

Maximum temperature yesterday: 61 °F (at 2:51 pm)
Minimum temperature yesterday: 48 °F (at 4:51 am)
Average temperature yesterday: 53 °F

High & Low Weather Summary for the Past Weeks

 TemperatureHumidityPressure
High79 °F (Oct 10, 2:51 pm)97% (Oct 6, 4:51 pm)30.44 "Hg (Oct 6, 4:51 pm)
Low42 °F (Oct 18, 7:51 am)30% (Oct 18, 4:51 pm)29.49 "Hg (Oct 12, 5:51 am)
Average63 °F77%30.09 "Hg
* Reported Oct 3 8:51 pm — Oct 18 8:51 pm, New York. Weather by CustomWeather, © 2018

Note: Actual official high and low records may vary slightly from our data, if they occured in-between our weather recording intervals... More about our weather records

Advertising

New York Weather History for the Previous 24 Hours

Scroll right to see more
 ConditionsComfort  
Time TempWeatherWind HumidityBarometerVisibility
8:51 pm
Thu, Oct 18
47 °FClear.N/A42%30.34 "Hg10 mi
7:51 pm47 °FClear.N/A41%30.34 "Hg10 mi
6:51 pm48 °FClear.N/A39%30.34 "Hg10 mi
5:51 pm49 °FSunny.N/A36%30.32 "Hg10 mi
4:51 pm50 °FSunny.N/A30%30.31 "Hg10 mi
3:51 pm50 °FSunny.N/A32%30.30 "Hg10 mi
2:51 pm49 °FSunny.N/A32%30.31 "Hg10 mi
1:51 pm49 °FSunny.N/A31%30.32 "Hg10 mi
12:51 pm48 °FSunny.N/A34%30.33 "Hg10 mi
11:51 am46 °FSunny.N/A38%30.34 "Hg10 mi
10:51 am44 °FScattered clouds.N/A41%30.34 "Hg10 mi
9:51 am43 °FPassing clouds.N/A45%30.34 "Hg10 mi
8:51 am42 °FSunny.N/A49%30.33 "Hg10 mi
7:51 am42 °FScattered clouds.N/A51%30.30 "Hg10 mi
6:51 am43 °FOvercast.N/A53%30.27 "Hg10 mi
5:51 am43 °FPassing clouds.N/A56%30.24 "Hg10 mi
4:51 am44 °FPassing clouds.N/A49%30.22 "Hg10 mi
3:51 am44 °FClear.N/A49%30.18 "Hg10 mi
2:51 am45 °FClear.N/A45%30.16 "Hg10 mi
1:51 am46 °FPassing clouds.N/A50%30.15 "Hg10 mi
12:51 am47 °FPassing clouds.N/A52%30.14 "Hg10 mi
11:51 pm
Wed, Oct 17
48 °FClear.N/A48%30.12 "Hg10 mi
Weather by CustomWeather, © 2018

See weather overview